CZ-6A DEB

Satellite information

Favourite Embed

Satellite Type and Status

DEBRISIN ORBIT

Key statistics

Satellite CZ-6A DEB at a glance.

Uptime

1030

Days in orbit

Revolutions

≈ 14.4

Per day

Orbit

SSO

Sun Synchronous Orbit

Inclination

98.6

Latest

Satellite identification and parameters

Extended collection of information and parameters for CZ-6A DEB.

Object identification

Identified? True

Debris? True

Object name: CZ-6A DEB

International designator: 2022-151DS

Object number (NORAD): 54394

Object ID (CCSDS): 54394

Country: PEOPLES REPUBLIC OF CHINA (PRC)

Current information (Y/N): Y

RCS size: LARGE

Orbital parameters

Period: 99.891 minutes

Inclination: 98.5985 deg

SMA: 7131.45 km

Apoapsis: 827.353 km

Periapsis: 679.277 km

RAAN: 273.7679 deg

Eccentricy: 0.01038189

Argument of periapsis: 119.9962 deg

Mean anomaly: 241.1579 deg

Mean motion: 14.41570868 rev/day

Mean motion (dot): 0.0000182 rev/day2

B* drag term: 0.00053846048 1/REarth

Two-line elements (TLE)

Creation date: Sept. 6, 2025, 2:09 a.m.

Reference frame: TEME

Reference center: EARTH

Epoch: Sept. 5, 2025, 10:08 p.m. UTC

TLE line 0: 0 CZ-6A DEB

TLE line 1: 1 54394U 22151DS 25248.92287334 .00001820 00000-0 53846-3 0 9995

TLE line 2: 2 54394 98.5985 273.7679 0103819 119.9962 241.1579 14.41570868147624

Live tracking on map

Real-time ground track for satellite CZ-6A DEB.

In-orbit conjunctions

A list of the most updated potential collisions computed for object CZ-6A DEB.

Target Orbit TCA Probability of collision Miss distance Type
CZ-6A DEB LEO 2025-09-03 23:08:44 0.0002547579 427.0 (m) DEBRIS
IRIDIUM 33 DEB LEO 2025-02-10 13:11:14 0.001282699 39.0 (m) DEBRIS
SPOT 4 SSO 2024-11-07 11:27:37 0.0005535772 517.0 (m) PAYLOAD

Associated space launch

Chinese satellite reported for atmospheric/ocean/environmental/spatial parameter research purposes, details TBD.

CZ-6A DEB was lifted into orbit during the mission ‘Long March 6A | Yunhai 3’, on board a Long March 6A space rocket.

The launch took place on Nov. 11, 2022, 10:52 p.m. from Launch Complex 9A.

For more information about the launch, click the button.

Launch to space Long March 6A | Yunhai 3
Long March 6A | Yunhai 3

Agency: N/A

Status: Launch Successful

Launch date: Nov. 11, 2022, 10:52 p.m. UTC

Rocket: Long March 6A

Launch pad: Launch Complex 9A

Location: Taiyuan Satellite Launch Center, People's Republic of China

...

Latest news about this satellite

There are no fresh news available about this satellite. Check back as we update our databases every day.


Newsletter sign-up

Weekly statistics, charts and insights to help you stay on top of the space industry.